Voltar ao catálogo

STARLINK-37853

AtivoComunicaçõesSSO
NORAD 69498·PAYLOAD·🇺🇸 United States

Lançado Jun 11, 2026 de Vandenberg Space Force Base

Loading…

Próximas Passagens (próximas 24 horas)

TLE

AtualizadoSource: CelesTrak SupGP

Época: Sep 14, 2026, 22:53 UTC

1 69498C 26131W   26257.95395833  .00051461  00000+0  15975-2 0  2578
2 69498  97.2840 281.8528 0001619  97.9858 180.4114 15.33411988    18

Acompanhe STARLINK-37853 em tempo real com AllMySat

Download on the App Store